BCS5781 EPGD-EVRA

Flight info

Callsign BCS5781
Flight time 1h 28m
Altitude 35000
Route IRLUN DCT GRUDA L29 SUWGI M857 BOKSU DCT GUNTA
Aircraft B752/M-SDE2E3FGHIJ3J4J7RWXY/LB1

Departure

Time 2026-04-27 07:36
Airport Gdańsk Lech Wałęsa Airport (EPGD)

Arrival

Time 2026-04-27 09:04
Airport Riga International Airport (EVRA)
Time Latitude Longitude Altitude Speed Heading
2026-04-27 07:16 54.37883 18.47169 456 ft 0 kts 202°
2026-04-27 07:30 54.37879 18.47166 454 ft 2 kts 202°
2026-04-27 07:31 54.37852 18.47146 454 ft 5 kts 202°
2026-04-27 07:31 54.37828 18.47133 454 ft 2 kts 174°
2026-04-27 07:31 54.37786 18.47224 455 ft 17 kts 112°
2026-04-27 07:31 54.37734 18.47435 457 ft 19 kts 112°
2026-04-27 07:32 54.37683 18.47637 460 ft 17 kts 113°
2026-04-27 07:32 54.37636 18.47828 463 ft 18 kts 112°
2026-04-27 07:32 54.37588 18.48029 466 ft 17 kts 115°
2026-04-27 07:32 54.37544 18.48201 469 ft 14 kts 111°
2026-04-27 07:33 54.37510 18.48341 473 ft 12 kts 114°
2026-04-27 07:33 54.37474 18.48483 476 ft 15 kts 112°
2026-04-27 07:33 54.37427 18.48672 481 ft 17 kts 112°
2026-04-27 07:33 54.37383 18.48852 484 ft 16 kts 114°
2026-04-27 07:34 54.37336 18.49042 487 ft 17 kts 112°
2026-04-27 07:34 54.37290 18.49219 489 ft 14 kts 122°
2026-04-27 07:34 54.37211 18.49242 489 ft 12 kts 216°
2026-04-27 07:34 54.37152 18.49158 489 ft 6 kts 229°
2026-04-27 07:35 54.37145 18.49091 488 ft 5 kts 286°
2026-04-27 07:35 54.37199 18.48875 486 ft 47 kts 292°
2026-04-27 07:35 54.37433 18.47931 466 ft 124 kts 292°
2026-04-27 07:35 54.37851 18.46250 677 ft 174 kts 294°
2026-04-27 07:36 54.38325 18.44283 1643 ft 181 kts 294°
2026-04-27 07:36 54.38809 18.42316 2185 ft 189 kts 295°
2026-04-27 07:36 54.39336 18.40191 2561 ft 204 kts 295°
2026-04-27 07:36 54.39907 18.37881 3057 ft 216 kts 295°
2026-04-27 07:37 54.40487 18.35523 3842 ft 216 kts 295°
2026-04-27 07:37 54.41071 18.33149 4570 ft 218 kts 295°
2026-04-27 07:37 54.41658 18.30757 5317 ft 219 kts 295°
2026-04-27 07:37 54.42244 18.28372 6058 ft 220 kts 295°
2026-04-27 07:38 54.42828 18.25991 6781 ft 221 kts 295°
2026-04-27 07:38 54.43329 18.23489 7505 ft 226 kts 279°
2026-04-27 07:38 54.43085 18.20778 8123 ft 243 kts 248°
2026-04-27 07:38 54.41976 18.18586 8756 ft 259 kts 217°
2026-04-27 07:39 54.40285 18.17299 9385 ft 268 kts 204°
2026-04-27 07:39 54.38571 18.16162 10021 ft 271 kts 207°
2026-04-27 07:39 54.36733 18.15113 10445 ft 289 kts 191°
2026-04-27 07:39 54.34671 18.15342 10699 ft 315 kts 163°
2026-04-27 07:40 54.32685 18.17156 10980 ft 334 kts 137°
2026-04-27 07:40 54.31088 18.20132 11271 ft 352 kts 126°
2026-04-27 07:40 54.29444 18.23403 11715 ft 366 kts 133°
2026-04-27 07:40 54.27423 18.26095 12400 ft 374 kts 150°
2026-04-27 07:41 54.25061 18.27917 13067 ft 378 kts 159°
2026-04-27 07:41 54.22639 18.29602 13737 ft 382 kts 159°
2026-04-27 07:41 54.20149 18.31318 14403 ft 387 kts 159°
2026-04-27 07:41 54.17646 18.33024 15039 ft 391 kts 159°
2026-04-27 07:42 54.15124 18.34734 15696 ft 393 kts 159°
2026-04-27 07:42 54.12588 18.36445 16257 ft 399 kts 159°
2026-04-27 07:42 54.10003 18.38187 16894 ft 401 kts 159°
2026-04-27 07:42 54.07402 18.39937 17430 ft 405 kts 159°
2026-04-27 07:43 54.04793 18.41688 17992 ft 409 kts 159°
2026-04-27 07:43 54.02134 18.43471 18581 ft 411 kts 159°
2026-04-27 07:43 53.99454 18.45265 19109 ft 415 kts 159°
2026-04-27 07:43 53.96789 18.47046 19668 ft 417 kts 159°
2026-04-27 07:44 53.94076 18.48856 20199 ft 420 kts 159°
2026-04-27 07:44 53.91370 18.50660 20718 ft 423 kts 159°
2026-04-27 07:44 53.88620 18.52490 21229 ft 426 kts 159°
2026-04-27 07:44 53.85854 18.54329 21728 ft 429 kts 159°
2026-04-27 07:45 53.83104 18.56154 22174 ft 432 kts 160°
2026-04-27 07:45 53.80279 18.58026 22647 ft 435 kts 159°
2026-04-27 07:45 53.77477 18.59880 23139 ft 437 kts 160°
2026-04-27 07:45 53.74622 18.61786 23548 ft 441 kts 158°
2026-04-27 07:46 53.71814 18.63834 23999 ft 444 kts 157°
2026-04-27 07:46 53.68953 18.65923 24446 ft 446 kts 158°
2026-04-27 07:46 53.66120 18.68014 24910 ft 448 kts 155°
2026-04-27 07:46 53.63411 18.70645 25258 ft 453 kts 145°
2026-04-27 07:47 53.61018 18.73989 25705 ft 454 kts 134°
2026-04-27 07:47 53.58962 18.78003 26100 ft 455 kts 123°
2026-04-27 07:47 53.57333 18.82538 26504 ft 454 kts 113°
2026-04-27 07:47 53.56179 18.87452 26849 ft 453 kts 103°
2026-04-27 07:48 53.55537 18.92611 27246 ft 450 kts 92°
2026-04-27 07:48 53.55421 18.97816 27602 ft 447 kts 82°
2026-04-27 07:48 53.55827 19.02930 27954 ft 443 kts 72°
2026-04-27 07:48 53.56593 19.07965 28314 ft 443 kts 70°
2026-04-27 07:49 53.57352 19.12962 28649 ft 446 kts 71°
2026-04-27 07:49 53.58107 19.18000 29026 ft 448 kts 71°
2026-04-27 07:49 53.58867 19.23095 29314 ft 451 kts 71°
2026-04-27 07:49 53.59624 19.28197 29701 ft 452 kts 71°
2026-04-27 07:50 53.60385 19.33350 29966 ft 456 kts 71°
2026-04-27 07:50 53.61137 19.38461 30313 ft 456 kts 71°
2026-04-27 07:50 53.61898 19.43658 30607 ft 459 kts 71°
2026-04-27 07:50 53.62656 19.48852 30884 ft 461 kts 71°
2026-04-27 07:51 53.63425 19.54135 31127 ft 464 kts 71°
2026-04-27 07:51 53.64191 19.59418 31428 ft 465 kts 71°
2026-04-27 07:51 53.64948 19.64659 31764 ft 465 kts 71°
2026-04-27 07:51 53.65713 19.69972 32096 ft 465 kts 72°
2026-04-27 07:52 53.66467 19.75223 32420 ft 464 kts 71°
2026-04-27 07:52 53.67224 19.80524 32775 ft 463 kts 71°
2026-04-27 07:52 53.67970 19.85749 33071 ft 463 kts 71°
2026-04-27 07:52 53.68716 19.91006 33367 ft 462 kts 71°
2026-04-27 07:53 53.69461 19.96267 33693 ft 461 kts 71°
2026-04-27 07:53 53.70207 20.01557 33962 ft 461 kts 71°
2026-04-27 07:53 53.70938 20.06758 34188 ft 462 kts 71°
2026-04-27 07:53 53.71679 20.12045 34467 ft 461 kts 71°
2026-04-27 07:54 53.72409 20.17276 34688 ft 462 kts 71°
2026-04-27 07:54 53.73144 20.22559 34876 ft 462 kts 71°
2026-04-27 07:54 53.73881 20.27874 35067 ft 462 kts 71°
2026-04-27 07:55 53.75318 20.38306 35161 ft 458 kts 71°
2026-04-27 07:55 53.76757 20.48805 35160 ft 461 kts 71°
2026-04-27 07:56 53.78196 20.59395 35154 ft 460 kts 71°
2026-04-27 07:56 53.79607 20.69848 35151 ft 460 kts 72°
2026-04-27 07:57 53.81015 20.80362 35155 ft 460 kts 71°
2026-04-27 07:57 53.82419 20.90918 35154 ft 461 kts 71°
2026-04-27 07:58 53.83816 21.01500 35156 ft 461 kts 71°
2026-04-27 07:58 53.85200 21.12059 35153 ft 461 kts 71°
2026-04-27 07:59 53.86577 21.22649 35143 ft 461 kts 71°
2026-04-27 07:59 53.88625 21.38563 35146 ft 462 kts 70°
2026-04-27 08:00 53.89980 21.49185 35145 ft 462 kts 71°
2026-04-27 08:00 53.91324 21.59800 35138 ft 463 kts 70°
2026-04-27 08:01 53.92659 21.70440 35132 ft 463 kts 71°
2026-04-27 08:01 53.93972 21.80969 35127 ft 463 kts 71°
2026-04-27 08:02 53.95269 21.91465 35118 ft 462 kts 71°
2026-04-27 08:02 53.96575 22.02102 35113 ft 464 kts 71°
2026-04-27 08:03 53.97877 22.12802 35113 ft 462 kts 71°
2026-04-27 08:03 53.99165 22.23467 35113 ft 462 kts 70°
2026-04-27 08:04 54.00447 22.34163 35105 ft 463 kts 70°
2026-04-27 08:04 54.01722 22.44894 35106 ft 462 kts 70°
2026-04-27 08:05 54.02980 22.55561 35099 ft 463 kts 70°
2026-04-27 08:05 54.04232 22.66259 35085 ft 465 kts 71°
2026-04-27 08:06 54.05708 22.76863 35082 ft 453 kts 60°
2026-04-27 08:06 54.07028 22.81700 35085 ft 441 kts 50°
2026-04-27 08:06 54.08745 22.85915 35092 ft 429 kts 40°
2026-04-27 08:07 54.13130 22.92256 35104 ft 410 kts 22°
2026-04-27 08:07 54.18054 22.96648 35090 ft 400 kts 17°
2026-04-27 08:08 54.23119 23.00483 35093 ft 398 kts 15°
2026-04-27 08:08 54.28221 23.04087 35080 ft 398 kts 14°
2026-04-27 08:09 54.33426 23.06705 35085 ft 387 kts
2026-04-27 08:09 54.38716 23.08434 35094 ft 388 kts
2026-04-27 08:10 54.43977 23.10147 35089 ft 386 kts
2026-04-27 08:10 54.49236 23.11852 35070 ft 386 kts
2026-04-27 08:11 54.54510 23.13559 35090 ft 388 kts
2026-04-27 08:11 54.59817 23.15282 35209 ft 386 kts
2026-04-27 08:12 54.62460 23.16141 35092 ft 387 kts
2026-04-27 08:12 54.65082 23.16997 35081 ft 382 kts
2026-04-27 08:12 54.70285 23.18691 35075 ft 383 kts
2026-04-27 08:13 54.75507 23.20397 35073 ft 385 kts
2026-04-27 08:13 54.80732 23.22109 35081 ft 384 kts
2026-04-27 08:14 54.85960 23.23827 35069 ft 383 kts
2026-04-27 08:14 54.91145 23.25537 35061 ft 381 kts
2026-04-27 08:15 54.96343 23.27252 35055 ft 383 kts
2026-04-27 08:15 55.01592 23.28989 35059 ft 385 kts
2026-04-27 08:16 55.06804 23.30723 35049 ft 382 kts
2026-04-27 08:16 55.12001 23.32452 35069 ft 381 kts
2026-04-27 08:17 55.14611 23.33321 34812 ft 385 kts
2026-04-27 08:17 55.17181 23.34187 34675 ft 372 kts
2026-04-27 08:17 55.19620 23.35007 34301 ft 366 kts
2026-04-27 08:17 55.22084 23.35832 33942 ft 361 kts
2026-04-27 08:18 55.24534 23.36652 33591 ft 357 kts
2026-04-27 08:18 55.26875 23.37436 33202 ft 357 kts
2026-04-27 08:18 55.29326 23.38256 32802 ft 360 kts
2026-04-27 08:18 55.31781 23.39079 32395 ft 361 kts
2026-04-27 08:19 55.34215 23.39901 31983 ft 361 kts
2026-04-27 08:19 55.36697 23.40738 31556 ft 361 kts
2026-04-27 08:19 55.39128 23.41558 31147 ft 360 kts
2026-04-27 08:19 55.41564 23.42384 30726 ft 357 kts
2026-04-27 08:20 55.43986 23.43209 30278 ft 351 kts
2026-04-27 08:20 55.46365 23.44018 29833 ft 346 kts
2026-04-27 08:20 55.48693 23.44806 29394 ft 343 kts
2026-04-27 08:20 55.51006 23.45591 28962 ft 341 kts
2026-04-27 08:21 55.53336 23.46382 28536 ft 339 kts
2026-04-27 08:21 55.55636 23.47166 28118 ft 338 kts
2026-04-27 08:21 55.57938 23.47951 27698 ft 336 kts
2026-04-27 08:21 55.60195 23.48724 27284 ft 334 kts
2026-04-27 08:22 55.62453 23.49495 26873 ft 332 kts
2026-04-27 08:22 55.64735 23.50275 26463 ft 329 kts
2026-04-27 08:22 55.66942 23.51033 26066 ft 326 kts
2026-04-27 08:22 55.69152 23.51792 25669 ft 323 kts
2026-04-27 08:23 55.71368 23.52553 25271 ft 322 kts
2026-04-27 08:23 55.73538 23.53298 24893 ft 320 kts
2026-04-27 08:23 55.75695 23.54042 24511 ft 318 kts
2026-04-27 08:23 55.77857 23.54785 24126 ft 316 kts
2026-04-27 08:24 55.80006 23.55527 23755 ft 315 kts
2026-04-27 08:24 55.82140 23.56264 23389 ft 314 kts
2026-04-27 08:24 55.84283 23.57005 23026 ft 312 kts
2026-04-27 08:24 55.86393 23.57735 22663 ft 311 kts
2026-04-27 08:25 55.88500 23.58466 22300 ft 309 kts
2026-04-27 08:25 55.90613 23.59199 21941 ft 308 kts
2026-04-27 08:25 55.92685 23.59918 21583 ft 307 kts
2026-04-27 08:25 55.94780 23.60647 21231 ft 304 kts
2026-04-27 08:26 55.96829 23.61361 20878 ft 303 kts
2026-04-27 08:26 55.98909 23.62084 20518 ft 303 kts
2026-04-27 08:26 56.00955 23.62798 20170 ft 303 kts
2026-04-27 08:26 56.03004 23.63512 19824 ft 302 kts
2026-04-27 08:27 56.05061 23.64233 19458 ft 300 kts
2026-04-27 08:27 56.07087 23.64942 19095 ft 298 kts
2026-04-27 08:27 56.09108 23.65652 18742 ft 298 kts
2026-04-27 08:27 56.11140 23.66363 18414 ft 299 kts
2026-04-27 08:28 56.12999 23.67016 18113 ft 297 kts
2026-04-27 08:28 56.15022 23.67728 17766 ft 295 kts
2026-04-27 08:28 56.16356 23.68198 17542 ft 294 kts
2026-04-27 08:28 56.19025 23.69137 17108 ft 296 kts
2026-04-27 08:29 56.20966 23.69821 16772 ft 295 kts
2026-04-27 08:29 56.22970 23.70529 16419 ft 293 kts
2026-04-27 08:29 56.24977 23.71238 16089 ft 291 kts
2026-04-27 08:29 56.26952 23.71936 15743 ft 290 kts
2026-04-27 08:30 56.28923 23.72634 15401 ft 290 kts
2026-04-27 08:30 56.30906 23.73336 15073 ft 291 kts
2026-04-27 08:30 56.32896 23.74043 14732 ft 290 kts
2026-04-27 08:30 56.34864 23.74743 14398 ft 289 kts
2026-04-27 08:31 56.36814 23.75446 14071 ft 289 kts
2026-04-27 08:31 56.38768 23.76430 13580 ft 294 kts 11°
2026-04-27 08:31 56.40746 23.77420 13173 ft 290 kts 11°
2026-04-27 08:31 56.42612 23.78370 12563 ft 281 kts 11°
2026-04-27 08:32 56.44495 23.79320 11493 ft 283 kts 12°
2026-04-27 08:32 56.46332 23.80258 10642 ft 279 kts 12°
2026-04-27 08:32 56.48187 23.81206 9717 ft 277 kts 13°
2026-04-27 08:32 56.50033 23.82154 8838 ft 274 kts 13°
2026-04-27 08:33 56.51829 23.83076 7951 ft 272 kts 13°
2026-04-27 08:33 56.53622 23.84009 7125 ft 268 kts 13°
2026-04-27 08:33 56.55383 23.84941 6272 ft 266 kts 13°
2026-04-27 08:33 56.57142 23.85873 5486 ft 261 kts 13°
2026-04-27 08:34 56.58856 23.86782 4835 ft 252 kts 13°
2026-04-27 08:34 56.59929 23.87354 4610 ft 240 kts 13°
2026-04-27 08:34 56.61491 23.88185 4287 ft 230 kts 13°
2026-04-27 08:34 56.63533 23.89265 3791 ft 232 kts 13°
2026-04-27 08:35 56.65092 23.90093 3400 ft 234 kts 13°
2026-04-27 08:35 56.66612 23.91103 3017 ft 236 kts 17°
2026-04-27 08:35 56.68157 23.92009 2637 ft 235 kts 11°
2026-04-27 08:35 56.69712 23.92693 2528 ft 223 kts
2026-04-27 08:36 56.71182 23.93209 2530 ft 209 kts
2026-04-27 08:36 56.72573 23.93609 2529 ft 195 kts
2026-04-27 08:36 56.73860 23.93926 2529 ft 182 kts
2026-04-27 08:36 56.75093 23.94195 2530 ft 173 kts
2026-04-27 08:37 56.76297 23.94431 2554 ft 179 kts
2026-04-27 08:37 56.77540 23.94660 2542 ft 182 kts
2026-04-27 08:37 56.78804 23.94884 2411 ft 186 kts
2026-04-27 08:37 56.80101 23.95105 2163 ft 186 kts
2026-04-27 08:38 56.81383 23.95321 1905 ft 183 kts
2026-04-27 08:38 56.82202 23.95458 1733 ft 174 kts
2026-04-27 08:38 56.83709 23.95710 1456 ft 153 kts 360°
2026-04-27 08:38 56.84708 23.95875 1277 ft 134 kts
2026-04-27 08:39 56.85569 23.96009 1085 ft 116 kts
2026-04-27 08:39 56.86353 23.96132 903 ft 113 kts
2026-04-27 08:39 56.86517 23.96165 890 ft 112 kts
2026-04-27 08:41 56.87091 23.96276 756 ft 115 kts
2026-04-27 08:41 56.87892 23.96371 599 ft 118 kts 359°
2026-04-27 08:41 56.88737 23.96529 442 ft 122 kts
2026-04-27 08:41 56.89598 23.96666 257 ft 130 kts 358°
2026-04-27 08:42 56.90482 23.96804 114 ft 121 kts
2026-04-27 08:42 56.91252 23.96924 20 ft 102 kts
2026-04-27 08:42 56.91772 23.97047 109 ft 123 kts
2026-04-27 08:42 56.92905 23.97233 1041 ft 130 kts 359°
2026-04-27 08:43 56.93825 23.97016 1770 ft 145 kts 334°
2026-04-27 08:43 56.94466 23.95480 2238 ft 171 kts 291°
2026-04-27 08:43 56.94558 23.93250 2579 ft 183 kts 279°
2026-04-27 08:43 56.94508 23.90885 2525 ft 188 kts 264°
2026-04-27 08:44 56.93788 23.88899 2540 ft 197 kts 221°
2026-04-27 08:44 56.92468 23.88053 2583 ft 213 kts 192°
2026-04-27 08:44 56.90974 23.87822 2536 ft 215 kts 185°
2026-04-27 08:44 56.89508 23.87682 2535 ft 210 kts 186°
2026-04-27 08:45 56.88052 23.87544 2546 ft 212 kts 186°
2026-04-27 08:45 56.87060 23.87440 2549 ft 210 kts 186°
2026-04-27 08:45 56.85218 23.87268 2520 ft 188 kts 185°
2026-04-27 08:45 56.84003 23.87704 2576 ft 174 kts 144°
2026-04-27 08:46 56.83432 23.88684 2595 ft 164 kts 114°
2026-04-27 08:46 56.83110 23.91270 2402 ft 152 kts 84°
2026-04-27 08:46 56.83114 23.92528 2264 ft 147 kts 69°
2026-04-27 08:46 56.83686 23.94551 1945 ft 130 kts 33°
2026-04-27 08:47 56.84421 23.95405 1754 ft 122 kts 18°
2026-04-27 08:47 56.85221 23.95900 1503 ft 122 kts
2026-04-27 08:47 56.86057 23.96139 1288 ft 122 kts 359°
2026-04-27 08:47 56.86914 23.96207 1019 ft 125 kts 359°
2026-04-27 08:48 56.87774 23.96363 787 ft 123 kts
2026-04-27 08:48 56.88634 23.96534 537 ft 127 kts
2026-04-27 08:48 56.89505 23.96627 319 ft 128 kts 360°
2026-04-27 08:48 56.90374 23.96800 128 ft 123 kts 353°
2026-04-27 08:49 56.91215 23.96953 42 ft 132 kts 356°
2026-04-27 08:49 56.92213 23.97093 559 ft 155 kts
2026-04-27 08:49 56.92902 23.97244 1227 ft 154 kts
2026-04-27 08:49 56.94367 23.97765 2092 ft 178 kts
2026-04-27 08:50 56.95169 23.97902 2304 ft 169 kts 351°
2026-04-27 08:50 56.96328 23.96294 2506 ft 172 kts 296°
2026-04-27 08:50 56.96500 23.94093 2486 ft 179 kts 278°
2026-04-27 08:50 56.96262 23.91838 2459 ft 187 kts 245°
2026-04-27 08:51 56.95234 23.90270 2515 ft 210 kts 204°
2026-04-27 08:51 56.94260 23.89972 2505 ft 218 kts 176°
2026-04-27 08:51 56.92767 23.90487 2480 ft 217 kts 169°
2026-04-27 08:51 56.90808 23.91040 2467 ft 213 kts 174°
2026-04-27 08:52 56.89825 23.91250 2472 ft 213 kts 176°
2026-04-27 08:52 56.88362 23.91521 2467 ft 214 kts 176°
2026-04-27 08:52 56.86280 23.91849 2483 ft 234 kts 176°
2026-04-27 08:52 56.84654 23.92087 2465 ft 236 kts 177°
2026-04-27 08:53 56.83556 23.92241 2458 ft 234 kts 177°
2026-04-27 08:53 56.81965 23.92459 2463 ft 232 kts 177°
2026-04-27 08:53 56.80349 23.92676 2466 ft 233 kts 178°
2026-04-27 08:53 56.78734 23.92891 2460 ft 234 kts 177°
2026-04-27 08:54 56.77110 23.93105 2462 ft 234 kts 178°
2026-04-27 08:54 56.75481 23.93320 2461 ft 233 kts 178°
2026-04-27 08:54 56.73869 23.93531 2464 ft 233 kts 178°
2026-04-27 08:54 56.71725 23.93896 2458 ft 233 kts 164°
2026-04-27 08:55 56.70752 23.94672 2489 ft 232 kts 143°
2026-04-27 08:55 56.68962 23.96948 2461 ft 235 kts 144°
2026-04-27 08:55 56.68055 23.98032 2454 ft 233 kts 144°
2026-04-27 08:55 56.66690 23.99598 2453 ft 232 kts 154°
2026-04-27 08:56 56.65124 23.99986 2518 ft 230 kts 201°
2026-04-27 08:56 56.63856 23.98449 2515 ft 217 kts 246°
2026-04-27 08:56 56.63479 23.96003 2500 ft 195 kts 284°
2026-04-27 08:56 56.63923 23.93822 2490 ft 183 kts 308°
2026-04-27 08:57 56.66539 23.92722 2475 ft 184 kts
2026-04-27 08:57 56.67384 23.92904 2473 ft 180 kts
2026-04-27 08:57 56.69006 23.93221 2467 ft 176 kts
2026-04-27 08:58 56.69818 23.93373 2460 ft 176 kts
2026-04-27 08:58 56.71050 23.93596 2463 ft 178 kts
2026-04-27 08:58 56.72270 23.93810 2460 ft 178 kts
2026-04-27 08:58 56.73501 23.94022 2459 ft 173 kts
2026-04-27 08:59 56.74656 23.94221 2441 ft 159 kts
2026-04-27 08:59 56.75710 23.94399 2438 ft 145 kts
2026-04-27 08:59 56.76658 23.94559 2437 ft 133 kts
2026-04-27 08:59 56.77589 23.94709 2472 ft 137 kts
2026-04-27 09:00 56.78565 23.94864 2442 ft 143 kts
2026-04-27 09:00 56.79543 23.95025 2303 ft 138 kts
2026-04-27 09:00 56.80464 23.95178 2115 ft 130 kts
2026-04-27 09:00 56.81337 23.95321 1914 ft 123 kts
2026-04-27 09:01 56.82167 23.95456 1736 ft 119 kts
2026-04-27 09:01 56.83014 23.95590 1588 ft 123 kts
2026-04-27 09:01 56.83875 23.95730 1410 ft 125 kts
2026-04-27 09:01 56.85036 23.95919 1181 ft 127 kts 357°
2026-04-27 09:02 56.85631 23.96014 1066 ft 129 kts
2026-04-27 09:02 56.86500 23.96155 880 ft 124 kts
2026-04-27 09:02 56.87366 23.96292 707 ft 129 kts
2026-04-27 09:02 56.88647 23.96509 464 ft 146 kts 360°
2026-04-27 09:03 56.89331 23.96615 332 ft 150 kts
2026-04-27 09:03 56.90371 23.96777 82 ft 149 kts
2026-04-27 09:03 56.91349 23.96957 10 ft 126 kts
2026-04-27 09:03 56.92050 23.97064 10 ft 50 kts
2026-04-27 09:04 56.92228 23.97098 10 ft 24 kts
2026-04-27 09:04 56.92390 23.97177 10 ft 24 kts 29°
2026-04-27 09:04 56.92518 23.97323 10 ft 21 kts 34°
2026-04-27 09:04 56.92600 23.97426 10 ft 0 kts 52°
2026-04-27 09:05 56.92606 23.97444 10 ft 3 kts 67°
2026-04-27 09:05 56.92610 23.97503 10 ft 10 kts 89°
2026-04-27 09:05 56.92606 23.97690 10 ft 13 kts 79°
2026-04-27 09:05 56.92669 23.97763 10 ft 10 kts
2026-04-27 09:06 56.92695 23.97711 10 ft 4 kts 271°
2026-04-27 09:06 56.92696 23.97683 10 ft 0 kts 274°